EJU1YB EHAM-LCLK

Flight info

Callsign EJU1YB
Flight time 3h 9m
Altitude 35000
Route EDUPO Z739 MISGO DCT ASBON DCT TUSUK DCT UTABA DCT BEMKI DCT ELMEM DCT DIRAB DCT PEVAL DCT PUL DCT AMUGO DCT VAKSU DCT KOFER DCT PINDO DCT AKINA DCT LINRO UL52 VAXOS UM978 TOSKA DCT BONEK
Aircraft A320/M-SDE3FGHIRWY/LB1

Departure

Time 2026-04-27 09:29
Airport Amsterdam Airport Schiphol (EHAM)

Arrival

Time 2026-04-27 12:38
Airport Larnaca International Airport (LCLK)
Time Latitude Longitude Altitude Speed Heading
2026-04-27 08:59 52.31184 4.75808 -1 ft 0 kts 267°
2026-04-27 09:02 52.31184 4.75809 -1 ft 0 kts 267°
2026-04-27 09:13 52.31184 4.75808 -1 ft 0 kts 267°
2026-04-27 09:13 52.31185 4.75818 -1 ft 2 kts 267°
2026-04-27 09:13 52.31185 4.75846 -1 ft 2 kts 267°
2026-04-27 09:14 52.31188 4.75873 -1 ft 2 kts 247°
2026-04-27 09:14 52.31199 4.75895 -1 ft 2 kts 236°
2026-04-27 09:14 52.31203 4.75921 -1 ft 2 kts 294°
2026-04-27 09:14 52.31196 4.75946 -1 ft 2 kts 302°
2026-04-27 09:15 52.31195 4.75949 -1 ft 0 kts 302°
2026-04-27 09:18 52.31229 4.75943 -1 ft 11 kts 359°
2026-04-27 09:18 52.31305 4.75933 -1 ft 10 kts 356°
2026-04-27 09:18 52.31373 4.75927 -1 ft 9 kts 356°
2026-04-27 09:18 52.31429 4.75909 -1 ft 7 kts 325°
2026-04-27 09:19 52.31441 4.75847 -1 ft 5 kts 268°
2026-04-27 09:19 52.31439 4.75788 -1 ft 6 kts 266°
2026-04-27 09:19 52.31436 4.75696 -1 ft 10 kts 267°
2026-04-27 09:19 52.31431 4.75557 -1 ft 15 kts 267°
2026-04-27 09:20 52.31424 4.75364 -1 ft 19 kts 265°
2026-04-27 09:20 52.31416 4.75120 -1 ft 23 kts 266°
2026-04-27 09:20 52.31406 4.74858 -1 ft 23 kts 266°
2026-04-27 09:20 52.31399 4.74592 -1 ft 24 kts 268°
2026-04-27 09:21 52.31390 4.74317 -1 ft 20 kts 267°
2026-04-27 09:21 52.31419 4.74149 -1 ft 13 kts 338°
2026-04-27 09:21 52.31506 4.74150 -1 ft 13 kts
2026-04-27 09:21 52.31601 4.74159 -1 ft 14 kts
2026-04-27 09:22 52.31704 4.74169 -1 ft 15 kts
2026-04-27 09:22 52.31815 4.74180 -1 ft 17 kts
2026-04-27 09:22 52.31936 4.74192 -1 ft 18 kts
2026-04-27 09:22 52.32030 4.74099 -2 ft 18 kts 286°
2026-04-27 09:23 52.32040 4.73899 -2 ft 16 kts 275°
2026-04-27 09:23 52.32048 4.73731 -1 ft 14 kts 272°
2026-04-27 09:23 52.32052 4.73585 -1 ft 12 kts 273°
2026-04-27 09:23 52.32057 4.73458 -1 ft 10 kts 276°
2026-04-27 09:24 52.32086 4.73360 -1 ft 9 kts 311°
2026-04-27 09:24 52.32135 4.73290 -1 ft 12 kts 319°
2026-04-27 09:24 52.32205 4.73192 -1 ft 13 kts 319°
2026-04-27 09:24 52.32275 4.73095 -1 ft 16 kts 319°
2026-04-27 09:25 52.32377 4.72950 -1 ft 23 kts 319°
2026-04-27 09:25 52.32499 4.72779 -1 ft 24 kts 319°
2026-04-27 09:25 52.32626 4.72600 -1 ft 24 kts 318°
2026-04-27 09:25 52.32745 4.72397 -1 ft 25 kts 311°
2026-04-27 09:26 52.32864 4.72180 -1 ft 26 kts 311°
2026-04-27 09:26 52.32985 4.71954 -1 ft 27 kts 311°
2026-04-27 09:26 52.33093 4.71757 -1 ft 18 kts 311°
2026-04-27 09:26 52.33148 4.71583 -1 ft 17 kts 270°
2026-04-27 09:27 52.33137 4.71412 -1 ft 14 kts 299°
2026-04-27 09:27 52.33198 4.71302 -1 ft 12 kts 311°
2026-04-27 09:27 52.33248 4.71206 -1 ft 10 kts 310°
2026-04-27 09:27 52.33292 4.71124 -2 ft 9 kts 312°
2026-04-27 09:28 52.33335 4.71046 -2 ft 9 kts 312°
2026-04-27 09:28 52.33379 4.70971 -2 ft 9 kts 321°
2026-04-27 09:28 52.33430 4.70944 -2 ft 7 kts 356°
2026-04-27 09:28 52.33476 4.70949 -2 ft 10 kts
2026-04-27 09:29 52.33764 4.70975 -1 ft 77 kts
2026-04-27 09:29 52.34502 4.71043 -2 ft 133 kts
2026-04-27 09:29 52.35573 4.71151 45 ft 171 kts
2026-04-27 09:29 52.36738 4.71212 763 ft 166 kts
2026-04-27 09:30 52.37902 4.71243 1421 ft 171 kts
2026-04-27 09:30 52.39159 4.71376 1751 ft 192 kts
2026-04-27 09:30 52.40550 4.71542 2005 ft 214 kts
2026-04-27 09:30 52.42105 4.71931 2347 ft 238 kts 19°
2026-04-27 09:31 52.43628 4.73191 2932 ft 251 kts 30°
2026-04-27 09:31 52.45156 4.74620 3750 ft 255 kts 29°
2026-04-27 09:31 52.46608 4.76318 4597 ft 259 kts 44°
2026-04-27 09:31 52.47681 4.78707 5431 ft 264 kts 62°
2026-04-27 09:32 52.48238 4.81608 6214 ft 271 kts 82°
2026-04-27 09:32 52.48408 4.84708 6977 ft 275 kts 84°
2026-04-27 09:32 52.48443 4.87880 7698 ft 281 kts 97°
2026-04-27 09:32 52.47897 4.90973 8440 ft 286 kts 116°
2026-04-27 09:33 52.46760 4.93661 9213 ft 290 kts 135°
2026-04-27 09:33 52.45166 4.95715 9985 ft 293 kts 145°
2026-04-27 09:33 52.43484 4.97645 10611 ft 301 kts 146°
2026-04-27 09:33 52.41702 4.99694 10805 ft 324 kts 146°
2026-04-27 09:34 52.39792 5.01896 10967 ft 347 kts 146°
2026-04-27 09:34 52.37788 5.04209 11430 ft 356 kts 146°
2026-04-27 09:34 52.35753 5.06561 12067 ft 360 kts 146°
2026-04-27 09:34 52.33732 5.09012 12706 ft 365 kts 140°
2026-04-27 09:35 52.31942 5.11985 13325 ft 370 kts 133°
2026-04-27 09:35 52.30802 5.14076 13739 ft 372 kts 133°
2026-04-27 09:35 52.29059 5.17258 14356 ft 377 kts 134°
2026-04-27 09:35 52.27299 5.20452 14907 ft 381 kts 134°
2026-04-27 09:36 52.25515 5.23679 15435 ft 385 kts 134°
2026-04-27 09:36 52.23799 5.27063 15961 ft 390 kts 127°
2026-04-27 09:36 52.22230 5.30701 16482 ft 394 kts 127°
2026-04-27 09:36 52.20641 5.34391 16996 ft 399 kts 127°
2026-04-27 09:37 52.19034 5.38111 17508 ft 403 kts 127°
2026-04-27 09:37 52.17408 5.41858 18020 ft 407 kts 127°
2026-04-27 09:37 52.15783 5.45580 18524 ft 410 kts 127°
2026-04-27 09:37 52.14118 5.49381 18923 ft 415 kts 127°
2026-04-27 09:38 52.12435 5.53224 19347 ft 418 kts 127°
2026-04-27 09:38 52.10744 5.57092 19790 ft 421 kts 127°
2026-04-27 09:38 52.09037 5.60984 20243 ft 423 kts 127°
2026-04-27 09:38 52.07320 5.64885 20697 ft 426 kts 127°
2026-04-27 09:39 52.05527 5.68725 21132 ft 427 kts 133°
2026-04-27 09:39 52.03579 5.72382 21557 ft 429 kts 133°
2026-04-27 09:39 52.01614 5.76051 21987 ft 432 kts 134°
2026-04-27 09:39 51.99637 5.79731 22409 ft 434 kts 134°
2026-04-27 09:40 51.97643 5.83432 22823 ft 436 kts 134°
2026-04-27 09:40 51.95642 5.87149 23241 ft 439 kts 134°
2026-04-27 09:40 51.93631 5.90899 23617 ft 442 kts 134°
2026-04-27 09:40 51.91611 5.94669 23968 ft 445 kts 134°
2026-04-27 09:41 51.89576 5.98464 24292 ft 447 kts 134°
2026-04-27 09:41 51.87529 6.02268 24599 ft 449 kts 134°
2026-04-27 09:41 51.85467 6.06088 24919 ft 452 kts 134°
2026-04-27 09:41 51.83391 6.09923 25230 ft 454 kts 134°
2026-04-27 09:42 51.81301 6.13757 25531 ft 456 kts 134°
2026-04-27 09:42 51.79193 6.17605 25843 ft 458 kts 134°
2026-04-27 09:42 51.77075 6.21472 26139 ft 460 kts 134°
2026-04-27 09:42 51.74952 6.25345 26437 ft 463 kts 134°
2026-04-27 09:43 51.72814 6.29254 26733 ft 465 kts 134°
2026-04-27 09:43 51.70670 6.33173 27022 ft 467 kts 134°
2026-04-27 09:43 51.68510 6.37107 27320 ft 470 kts 134°
2026-04-27 09:43 51.66337 6.41050 27605 ft 472 kts 135°
2026-04-27 09:44 51.64154 6.45006 27878 ft 474 kts 135°
2026-04-27 09:44 51.61988 6.48922 28119 ft 476 kts 135°
2026-04-27 09:44 51.59783 6.52905 28388 ft 477 kts 135°
2026-04-27 09:44 51.57570 6.56908 28649 ft 479 kts 135°
2026-04-27 09:45 51.55349 6.60920 28901 ft 481 kts 135°
2026-04-27 09:45 51.53121 6.64937 29156 ft 483 kts 135°
2026-04-27 09:45 51.50881 6.68973 29390 ft 485 kts 135°
2026-04-27 09:45 51.48628 6.73018 29634 ft 487 kts 135°
2026-04-27 09:46 51.46358 6.77072 29874 ft 489 kts 135°
2026-04-27 09:46 51.44087 6.81124 30163 ft 489 kts 135°
2026-04-27 09:46 51.41787 6.85136 30480 ft 487 kts 139°
2026-04-27 09:46 51.39245 6.88682 30762 ft 482 kts 147°
2026-04-27 09:47 51.36471 6.91632 31035 ft 478 kts 152°
2026-04-27 09:47 51.33644 6.94463 31356 ft 477 kts 152°
2026-04-27 09:47 51.30833 6.97288 31670 ft 476 kts 152°
2026-04-27 09:47 51.28028 7.00112 31978 ft 475 kts 152°
2026-04-27 09:48 51.25233 7.02927 32288 ft 474 kts 152°
2026-04-27 09:48 51.22442 7.05730 32589 ft 473 kts 152°
2026-04-27 09:48 51.19658 7.08515 32895 ft 473 kts 152°
2026-04-27 09:48 51.16872 7.11295 33180 ft 472 kts 152°
2026-04-27 09:49 51.14089 7.14070 33445 ft 471 kts 152°
2026-04-27 09:49 51.11310 7.16837 33691 ft 471 kts 152°
2026-04-27 09:49 51.08537 7.19596 33975 ft 470 kts 152°
2026-04-27 09:49 51.05764 7.22356 34262 ft 470 kts 152°
2026-04-27 09:50 51.02990 7.25109 34513 ft 469 kts 152°
2026-04-27 09:50 51.00224 7.27844 34742 ft 469 kts 152°
2026-04-27 09:50 50.97455 7.30575 34980 ft 469 kts 152°
2026-04-27 09:50 50.94685 7.33303 35185 ft 469 kts 152°
2026-04-27 09:51 50.91951 7.35995 35266 ft 469 kts 152°
2026-04-27 09:51 50.86413 7.41449 35275 ft 468 kts 152°
2026-04-27 09:52 50.80882 7.46888 35272 ft 468 kts 152°
2026-04-27 09:52 50.75345 7.52298 35273 ft 468 kts 152°
2026-04-27 09:53 50.69793 7.57757 35268 ft 470 kts 151°
2026-04-27 09:53 50.64330 7.63441 35271 ft 471 kts 150°
2026-04-27 09:54 50.58885 7.69178 35255 ft 471 kts 150°
2026-04-27 09:54 50.53413 7.74845 35261 ft 470 kts 150°
2026-04-27 09:55 50.47932 7.80468 35264 ft 470 kts 150°
2026-04-27 09:55 50.39732 7.88837 35274 ft 470 kts 150°
2026-04-27 09:56 50.34248 7.94443 35251 ft 471 kts 150°
2026-04-27 09:56 50.28755 8.00043 35241 ft 471 kts 150°
2026-04-27 09:57 50.23246 8.05630 35236 ft 472 kts 150°
2026-04-27 09:57 50.17742 8.11183 35227 ft 472 kts 150°
2026-04-27 09:58 50.12135 8.16441 35198 ft 467 kts 159°
2026-04-27 09:58 50.06234 8.20707 35203 ft 467 kts 159°
2026-04-27 09:59 50.00335 8.24977 35212 ft 468 kts 159°
2026-04-27 09:59 49.94424 8.29241 35208 ft 469 kts 159°
2026-04-27 10:00 49.88499 8.33490 35217 ft 470 kts 159°
2026-04-27 10:00 49.82562 8.37733 35221 ft 470 kts 159°
2026-04-27 10:01 49.76621 8.41978 35231 ft 470 kts 159°
2026-04-27 10:01 49.70721 8.46188 35236 ft 470 kts 159°
2026-04-27 10:02 49.64778 8.50411 35223 ft 470 kts 159°
2026-04-27 10:02 49.58832 8.54616 35236 ft 470 kts 159°
2026-04-27 10:03 49.52883 8.58807 35244 ft 470 kts 159°
2026-04-27 10:03 49.46937 8.62997 35246 ft 470 kts 159°
2026-04-27 10:04 49.40986 8.67179 35227 ft 470 kts 159°
2026-04-27 10:04 49.35044 8.71348 35229 ft 470 kts 159°
2026-04-27 10:05 49.29102 8.75506 35232 ft 469 kts 159°
2026-04-27 10:05 49.23157 8.79648 35227 ft 469 kts 159°
2026-04-27 10:06 49.17211 8.83773 35205 ft 469 kts 158°
2026-04-27 10:06 49.11270 8.87894 35216 ft 469 kts 158°
2026-04-27 10:07 49.05313 8.92016 35211 ft 470 kts 158°
2026-04-27 10:07 48.99354 8.96122 35204 ft 470 kts 158°
2026-04-27 10:08 48.93392 9.00220 35211 ft 471 kts 158°
2026-04-27 10:08 48.87419 9.04313 35215 ft 471 kts 158°
2026-04-27 10:09 48.81443 9.08401 35218 ft 471 kts 158°
2026-04-27 10:09 48.75465 9.12472 35224 ft 471 kts 158°
2026-04-27 10:10 48.69492 9.16543 35216 ft 471 kts 158°
2026-04-27 10:10 48.63512 9.20624 35217 ft 471 kts 158°
2026-04-27 10:11 48.57524 9.24677 35211 ft 472 kts 158°
2026-04-27 10:11 48.51519 9.28710 35189 ft 472 kts 158°
2026-04-27 10:12 48.45557 9.32726 35187 ft 472 kts 158°
2026-04-27 10:12 48.39555 9.36774 35192 ft 472 kts 158°
2026-04-27 10:13 48.33549 9.40796 35197 ft 473 kts 158°
2026-04-27 10:13 48.27543 9.44827 35199 ft 473 kts 155°
2026-04-27 10:14 48.22093 9.50362 35204 ft 474 kts 141°
2026-04-27 10:14 48.16997 9.56671 35207 ft 474 kts 141°
2026-04-27 10:15 48.11888 9.62936 35207 ft 475 kts 141°
2026-04-27 10:15 48.06769 9.69181 35210 ft 475 kts 141°
2026-04-27 10:16 48.01645 9.75435 35197 ft 475 kts 141°
2026-04-27 10:16 47.96528 9.81680 35219 ft 475 kts 141°
2026-04-27 10:17 47.91411 9.87906 35217 ft 475 kts 141°
2026-04-27 10:17 47.86322 9.94077 35219 ft 475 kts 141°
2026-04-27 10:18 47.81201 10.00272 35210 ft 474 kts 141°
2026-04-27 10:18 47.76073 10.06453 35199 ft 474 kts 141°
2026-04-27 10:19 47.70941 10.12618 35204 ft 474 kts 141°
2026-04-27 10:19 47.65805 10.18770 35208 ft 474 kts 141°
2026-04-27 10:20 47.61501 10.23915 35203 ft 474 kts 141°
2026-04-27 10:20 47.56370 10.30028 35190 ft 473 kts 143°
2026-04-27 10:21 47.50904 10.35466 35185 ft 472 kts 147°
2026-04-27 10:21 47.45410 10.40799 35179 ft 472 kts 147°
2026-04-27 10:22 47.39955 10.46093 35191 ft 472 kts 147°
2026-04-27 10:22 47.34454 10.51406 35191 ft 472 kts 147°
2026-04-27 10:23 47.28952 10.56694 35180 ft 472 kts 147°
2026-04-27 10:23 47.23536 10.62151 35179 ft 471 kts 144°
2026-04-27 10:24 47.18233 10.67827 35181 ft 471 kts 144°
2026-04-27 10:24 47.12935 10.73497 35181 ft 471 kts 144°
2026-04-27 10:25 47.07606 10.79083 35190 ft 471 kts 145°
2026-04-27 10:25 47.02254 10.84623 35192 ft 471 kts 145°
2026-04-27 10:26 46.96901 10.90159 35204 ft 471 kts 145°
2026-04-27 10:26 46.91566 10.95702 35205 ft 470 kts 145°
2026-04-27 10:27 46.86223 11.01233 35209 ft 470 kts 145°
2026-04-27 10:27 46.80980 11.06942 35217 ft 470 kts 137°
2026-04-27 10:28 46.76446 11.13706 35209 ft 469 kts 134°
2026-04-27 10:28 46.71919 11.20544 35206 ft 469 kts 134°
2026-04-27 10:29 46.67374 11.27379 35145 ft 469 kts 134°
2026-04-27 10:29 46.62832 11.34192 35130 ft 469 kts 134°
2026-04-27 10:30 46.58285 11.40992 35119 ft 468 kts 134°
2026-04-27 10:30 46.53744 11.47780 35116 ft 468 kts 134°
2026-04-27 10:31 46.49195 11.54560 35118 ft 469 kts 134°
2026-04-27 10:31 46.44643 11.61328 35128 ft 468 kts 134°
2026-04-27 10:32 46.40088 11.68080 35143 ft 468 kts 134°
2026-04-27 10:32 46.35536 11.74832 35145 ft 468 kts 134°
2026-04-27 10:33 46.31010 11.81513 35135 ft 468 kts 134°
2026-04-27 10:33 46.26449 11.88217 35136 ft 467 kts 134°
2026-04-27 10:34 46.21882 11.94928 35135 ft 467 kts 134°
2026-04-27 10:34 46.17317 12.01616 35145 ft 468 kts 134°
2026-04-27 10:35 46.12747 12.08294 35143 ft 467 kts 134°
2026-04-27 10:35 46.08177 12.14953 35147 ft 467 kts 134°
2026-04-27 10:36 46.03628 12.21555 35152 ft 467 kts 134°
2026-04-27 10:36 45.99045 12.28196 35151 ft 467 kts 134°
2026-04-27 10:37 45.94464 12.34812 35166 ft 467 kts 134°
2026-04-27 10:37 45.89876 12.41432 35161 ft 467 kts 134°
2026-04-27 10:38 45.85289 12.48043 35154 ft 467 kts 134°
2026-04-27 10:38 45.80695 12.54641 35152 ft 467 kts 134°
2026-04-27 10:39 45.76097 12.61219 35153 ft 467 kts 134°
2026-04-27 10:39 45.71497 12.67793 35161 ft 467 kts 134°
2026-04-27 10:40 45.66882 12.74352 35154 ft 468 kts 134°
2026-04-27 10:40 45.62295 12.80865 35147 ft 467 kts 134°
2026-04-27 10:41 45.57691 12.87408 35149 ft 467 kts 134°
2026-04-27 10:41 45.53077 12.93946 35150 ft 467 kts 134°
2026-04-27 10:42 45.48454 13.00465 35160 ft 468 kts 134°
2026-04-27 10:42 45.43825 13.06974 35158 ft 468 kts 134°
2026-04-27 10:43 45.39187 13.13487 35146 ft 467 kts 134°
2026-04-27 10:43 45.34554 13.19977 35146 ft 467 kts 134°
2026-04-27 10:44 45.29941 13.26495 35156 ft 467 kts 132°
2026-04-27 10:44 45.25604 13.33344 35147 ft 467 kts 129°
2026-04-27 10:45 45.21437 13.40333 35150 ft 467 kts 129°
2026-04-27 10:45 45.17204 13.47305 35136 ft 467 kts 129°
2026-04-27 10:46 45.12898 13.54195 35139 ft 467 kts 130°
2026-04-27 10:46 45.08568 13.61071 35138 ft 467 kts 130°
2026-04-27 10:47 45.04249 13.67956 35139 ft 468 kts 130°
2026-04-27 10:47 44.99934 13.74851 35132 ft 468 kts 130°
2026-04-27 10:48 44.95616 13.81729 35131 ft 468 kts 130°
2026-04-27 10:48 44.91280 13.88588 35130 ft 468 kts 130°
2026-04-27 10:49 44.86959 13.95470 35123 ft 468 kts 129°
2026-04-27 10:49 44.82748 14.02479 35129 ft 469 kts 128°
2026-04-27 10:50 44.78566 14.09522 35140 ft 469 kts 128°
2026-04-27 10:50 44.74353 14.16540 35147 ft 469 kts 129°
2026-04-27 10:51 44.70133 14.23478 35151 ft 470 kts 129°
2026-04-27 10:51 44.65871 14.30449 35146 ft 470 kts 129°
2026-04-27 10:52 44.61623 14.37426 35149 ft 470 kts 129°
2026-04-27 10:52 44.57377 14.44394 35158 ft 470 kts 129°
2026-04-27 10:53 44.50994 14.54831 35154 ft 470 kts 130°
2026-04-27 10:54 44.46724 14.61774 35156 ft 470 kts 130°
2026-04-27 10:54 44.42472 14.68661 35147 ft 470 kts 130°
2026-04-27 10:55 44.38201 14.75600 35149 ft 470 kts 130°
2026-04-27 10:55 44.33915 14.82531 35157 ft 470 kts 130°
2026-04-27 10:56 44.29624 14.89435 35161 ft 470 kts 130°
2026-04-27 10:56 44.25324 14.96336 35159 ft 470 kts 130°
2026-04-27 10:57 44.21036 15.03220 35160 ft 470 kts 130°
2026-04-27 10:57 44.16768 15.10047 35134 ft 470 kts 130°
2026-04-27 10:58 44.12465 15.16915 35128 ft 470 kts 130°
2026-04-27 10:58 44.08158 15.23765 35129 ft 471 kts 130°
2026-04-27 10:59 44.03844 15.30623 35127 ft 471 kts 130°
2026-04-27 10:59 43.99525 15.37472 35135 ft 471 kts 131°
2026-04-27 11:00 43.93038 15.47737 35136 ft 471 kts 131°
2026-04-27 11:00 43.88701 15.54563 35138 ft 472 kts 131°
2026-04-27 11:01 43.84355 15.61384 35145 ft 472 kts 131°
2026-04-27 11:01 43.80006 15.68190 35146 ft 472 kts 132°
2026-04-27 11:02 43.75655 15.74988 35147 ft 472 kts 132°
2026-04-27 11:02 43.71332 15.81748 35141 ft 472 kts 132°
2026-04-27 11:03 43.66972 15.88546 35142 ft 472 kts 132°
2026-04-27 11:03 43.62613 15.95318 35136 ft 472 kts 132°
2026-04-27 11:04 43.58239 16.02084 35144 ft 472 kts 133°
2026-04-27 11:04 43.53868 16.08833 35140 ft 472 kts 133°
2026-04-27 11:05 43.50231 16.14444 35132 ft 472 kts 133°
2026-04-27 11:05 43.45857 16.21179 35132 ft 472 kts 133°
2026-04-27 11:06 43.41469 16.27906 35121 ft 472 kts 133°
2026-04-27 11:06 43.37079 16.34637 35122 ft 473 kts 133°
2026-04-27 11:07 43.32677 16.41357 35126 ft 473 kts 134°
2026-04-27 11:07 43.28274 16.48057 35129 ft 473 kts 133°
2026-04-27 11:08 43.23871 16.54756 35133 ft 472 kts 133°
2026-04-27 11:08 43.19470 16.61442 35126 ft 472 kts 134°
2026-04-27 11:09 43.15084 16.68070 35131 ft 472 kts 134°
2026-04-27 11:09 43.10665 16.74738 35131 ft 473 kts 134°
2026-04-27 11:10 43.06249 16.81405 35143 ft 473 kts 134°
2026-04-27 11:10 43.01824 16.88075 35141 ft 473 kts 134°
2026-04-27 11:11 42.97390 16.94716 35149 ft 473 kts 134°
2026-04-27 11:11 42.92953 17.01350 35138 ft 473 kts 134°
2026-04-27 11:12 42.88515 17.07965 35143 ft 473 kts 134°
2026-04-27 11:12 42.84077 17.14588 35146 ft 473 kts 134°
2026-04-27 11:13 42.79629 17.21197 35140 ft 473 kts 135°
2026-04-27 11:13 42.75202 17.27749 35142 ft 473 kts 135°
2026-04-27 11:14 42.70755 17.34331 35151 ft 473 kts 135°
2026-04-27 11:14 42.66297 17.40918 35136 ft 473 kts 135°
2026-04-27 11:15 42.61832 17.47496 35139 ft 473 kts 135°
2026-04-27 11:15 42.57364 17.54059 35139 ft 473 kts 135°
2026-04-27 11:16 42.53058 17.60807 35139 ft 474 kts 129°
2026-04-27 11:16 42.49124 17.67906 35139 ft 474 kts 129°
2026-04-27 11:17 42.45167 17.75052 35138 ft 474 kts 129°
2026-04-27 11:17 42.41200 17.82192 35124 ft 474 kts 129°
2026-04-27 11:18 42.37227 17.89302 35127 ft 474 kts 129°
2026-04-27 11:18 42.33246 17.96422 35127 ft 474 kts 129°
2026-04-27 11:19 42.29259 18.03531 35127 ft 474 kts 129°
2026-04-27 11:19 42.25267 18.10611 35132 ft 474 kts 129°
2026-04-27 11:20 42.21275 18.17684 35115 ft 474 kts 129°
2026-04-27 11:20 42.17307 18.24729 35118 ft 474 kts 129°
2026-04-27 11:21 42.13286 18.31844 35107 ft 474 kts 129°
2026-04-27 11:21 42.09283 18.38888 35115 ft 473 kts 129°
2026-04-27 11:22 42.05280 18.45923 35124 ft 473 kts 129°
2026-04-27 11:22 42.01266 18.52947 35123 ft 473 kts 129°
2026-04-27 11:23 41.97081 18.59774 35120 ft 473 kts 133°
2026-04-27 11:23 41.92738 18.66412 35122 ft 473 kts 133°
2026-04-27 11:24 41.88499 18.73093 35125 ft 473 kts 131°
2026-04-27 11:24 41.84361 18.79978 35121 ft 473 kts 130°
2026-04-27 11:25 41.80239 18.86856 35121 ft 473 kts 130°
2026-04-27 11:25 41.76074 18.93685 35122 ft 473 kts 130°
2026-04-27 11:26 41.71884 19.00483 35115 ft 473 kts 131°
2026-04-27 11:26 41.67700 19.07279 35117 ft 473 kts 130°
2026-04-27 11:27 41.63507 19.14084 35115 ft 473 kts 130°
2026-04-27 11:27 41.59339 19.20828 35110 ft 473 kts 130°
2026-04-27 11:28 41.55141 19.27610 35109 ft 473 kts 130°
2026-04-27 11:28 41.50939 19.34380 35116 ft 473 kts 130°
2026-04-27 11:29 41.46736 19.41138 35119 ft 473 kts 130°
2026-04-27 11:29 41.42527 19.47889 35115 ft 473 kts 130°
2026-04-27 11:30 41.38318 19.54631 35106 ft 473 kts 130°
2026-04-27 11:30 41.34108 19.61361 35102 ft 473 kts 131°
2026-04-27 11:31 41.29892 19.68086 35090 ft 473 kts 131°
2026-04-27 11:31 41.25673 19.74796 35099 ft 473 kts 131°
2026-04-27 11:32 41.21470 19.81451 35105 ft 473 kts 131°
2026-04-27 11:32 41.17243 19.88138 35101 ft 473 kts 131°
2026-04-27 11:33 41.13008 19.94831 35101 ft 473 kts 131°
2026-04-27 11:33 41.08765 20.01511 35103 ft 473 kts 131°
2026-04-27 11:34 41.04523 20.08190 35109 ft 473 kts 131°
2026-04-27 11:34 41.00278 20.14859 35105 ft 473 kts 131°
2026-04-27 11:35 40.96024 20.21516 35113 ft 474 kts 131°
2026-04-27 11:35 40.91759 20.28166 35119 ft 474 kts 131°
2026-04-27 11:36 40.87494 20.34812 35129 ft 474 kts 131°
2026-04-27 11:36 40.83225 20.41462 35128 ft 474 kts 131°
2026-04-27 11:37 40.78979 20.48054 35135 ft 474 kts 132°
2026-04-27 11:37 40.74698 20.54676 35146 ft 474 kts 132°
2026-04-27 11:38 40.70414 20.61278 35135 ft 474 kts 132°
2026-04-27 11:38 40.66133 20.67882 35130 ft 474 kts 132°
2026-04-27 11:39 40.61859 20.74491 35136 ft 474 kts 132°
2026-04-27 11:39 40.57572 20.81075 35148 ft 474 kts 133°
2026-04-27 11:40 40.53278 20.87642 35138 ft 474 kts 133°
2026-04-27 11:40 40.48983 20.94205 35147 ft 474 kts 133°
2026-04-27 11:41 40.44753 21.00835 35134 ft 474 kts 130°
2026-04-27 11:41 40.40674 21.07631 35144 ft 474 kts 129°
2026-04-27 11:42 40.36613 21.14442 35155 ft 474 kts 130°
2026-04-27 11:42 40.32533 21.21144 35146 ft 473 kts 131°
2026-04-27 11:43 40.28388 21.27857 35149 ft 473 kts 131°
2026-04-27 11:43 40.24248 21.34566 35146 ft 473 kts 130°
2026-04-27 11:44 40.20118 21.41280 35136 ft 474 kts 130°
2026-04-27 11:44 40.15983 21.47991 35138 ft 474 kts 131°
2026-04-27 11:45 40.12539 21.53561 35127 ft 473 kts 131°
2026-04-27 11:45 40.07694 21.61369 35136 ft 473 kts 131°
2026-04-27 11:46 40.03564 21.68009 35133 ft 473 kts 131°
2026-04-27 11:46 39.99420 21.74681 35140 ft 473 kts 131°
2026-04-27 11:47 39.95267 21.81353 35145 ft 473 kts 131°
2026-04-27 11:47 39.91109 21.88009 35145 ft 474 kts 131°
2026-04-27 11:48 39.86939 21.94661 35153 ft 474 kts 131°
2026-04-27 11:48 39.82759 22.01314 35143 ft 474 kts 131°
2026-04-27 11:49 39.78603 22.07905 35156 ft 474 kts 131°
2026-04-27 11:49 39.74415 22.14544 35160 ft 474 kts 131°
2026-04-27 11:50 39.70234 22.21179 35169 ft 475 kts 131°
2026-04-27 11:50 39.66043 22.27796 35157 ft 474 kts 131°
2026-04-27 11:51 39.61845 22.34414 35171 ft 475 kts 131°
2026-04-27 11:52 39.55546 22.44322 35162 ft 475 kts 131°
2026-04-27 11:52 39.51367 22.50872 35171 ft 474 kts 131°
2026-04-27 11:53 39.37942 22.71842 35189 ft 472 kts 131°
2026-04-27 11:53 39.21231 22.97718 35190 ft 472 kts 131°
2026-04-27 11:54 39.04395 23.23605 35213 ft 471 kts 131°
2026-04-27 11:54 38.87505 23.49348 35209 ft 471 kts 131°
2026-04-27 11:55 38.70544 23.75019 35206 ft 472 kts 131°
2026-04-27 11:55 38.53502 24.00581 35201 ft 471 kts 131°
2026-04-27 11:56 38.36464 24.25901 35196 ft 469 kts 131°
2026-04-27 11:56 38.19438 24.51082 35160 ft 470 kts 132°
2026-04-27 11:57 38.02241 24.76248 35141 ft 471 kts 132°
2026-04-27 11:57 37.85146 25.01116 35131 ft 471 kts 132°
2026-04-27 11:58 37.67908 25.25984 35121 ft 469 kts 132°
2026-04-27 11:58 37.50656 25.50667 35083 ft 470 kts 133°
2026-04-27 11:59 37.33299 25.75320 35106 ft 470 kts 132°
2026-04-27 11:59 37.15904 25.99857 35079 ft 469 kts 133°
2026-04-27 12:00 36.98473 26.24233 35047 ft 469 kts 133°
2026-04-27 12:00 36.81458 26.49021 35046 ft 470 kts 131°
2026-04-27 12:01 36.64462 26.73555 35031 ft 470 kts 132°
2026-04-27 12:01 36.47305 26.98181 35026 ft 471 kts 132°
2026-04-27 12:02 36.30090 27.22704 35017 ft 471 kts 132°
2026-04-27 12:02 36.12809 27.47130 35019 ft 472 kts 132°
2026-04-27 12:03 35.95501 27.71690 34986 ft 474 kts 126°
2026-04-27 12:03 35.82650 27.93812 35003 ft 475 kts 127°
2026-04-27 12:04 35.74921 28.07026 35010 ft 475 kts 127°
2026-04-27 12:04 35.67182 28.20179 34998 ft 474 kts 127°
2026-04-27 12:05 35.59429 28.33303 34975 ft 474 kts 127°
2026-04-27 12:05 35.51654 28.46429 34983 ft 476 kts 127°
2026-04-27 12:06 35.43889 28.59477 34988 ft 476 kts 127°
2026-04-27 12:06 35.36054 28.72595 34994 ft 477 kts 127°
2026-04-27 12:07 35.28194 28.85697 34999 ft 477 kts 127°
2026-04-27 12:07 35.20323 28.98758 34987 ft 477 kts 127°
2026-04-27 12:08 35.12438 29.11814 34983 ft 478 kts 127°
2026-04-27 12:08 35.04504 29.24883 34987 ft 479 kts 128°
2026-04-27 12:08 35.00928 29.31726 34984 ft 480 kts 114°
2026-04-27 12:09 34.99140 29.39528 34982 ft 479 kts 95°
2026-04-27 12:09 34.98486 29.55735 34973 ft 479 kts 91°
2026-04-27 12:10 34.97813 29.71861 34982 ft 478 kts 91°
2026-04-27 12:10 34.97172 29.88085 34997 ft 478 kts 91°
2026-04-27 12:11 34.96865 30.04257 34998 ft 476 kts 85°
2026-04-27 12:11 34.97638 30.20365 34990 ft 476 kts 85°
2026-04-27 12:12 34.98379 30.36481 34987 ft 476 kts 85°
2026-04-27 12:12 34.99095 30.52597 34988 ft 476 kts 85°
2026-04-27 12:13 34.99791 30.68694 34997 ft 475 kts 85°
2026-04-27 12:13 35.00475 30.84810 34993 ft 475 kts 85°
2026-04-27 12:14 35.01124 31.00894 34987 ft 475 kts 85°
2026-04-27 12:14 35.01758 31.16984 34985 ft 475 kts 85°
2026-04-27 12:15 35.02370 31.32990 34997 ft 475 kts 85°
2026-04-27 12:15 35.02957 31.49093 34990 ft 475 kts 85°
2026-04-27 12:16 35.03538 31.65193 34530 ft 474 kts 85°
2026-04-27 12:16 35.03811 31.73225 34065 ft 474 kts 85°
2026-04-27 12:16 35.04075 31.81251 33548 ft 473 kts 84°
2026-04-27 12:16 35.04259 31.86919 33171 ft 473 kts 84°
2026-04-27 12:17 35.04390 31.90925 32908 ft 473 kts 84°
2026-04-27 12:17 35.04523 31.94937 32232 ft 475 kts 84°
2026-04-27 12:17 35.04659 31.99004 31014 ft 484 kts 84°
2026-04-27 12:17 35.04791 32.03105 30408 ft 480 kts 84°
2026-04-27 12:18 35.04915 32.07153 29659 ft 476 kts 84°
2026-04-27 12:18 35.05038 32.11168 28986 ft 470 kts 85°
2026-04-27 12:18 35.05157 32.15132 28313 ft 464 kts 85°
2026-04-27 12:18 35.05272 32.19043 27668 ft 458 kts 85°
2026-04-27 12:19 35.05386 32.22906 27019 ft 453 kts 85°
2026-04-27 12:19 35.05497 32.26729 26379 ft 448 kts 85°
2026-04-27 12:19 35.05609 32.30504 25759 ft 443 kts 85°
2026-04-27 12:19 35.05724 32.34241 25141 ft 439 kts 85°
2026-04-27 12:20 35.05836 32.37942 24534 ft 434 kts 85°
2026-04-27 12:20 35.05943 32.41600 23961 ft 429 kts 86°
2026-04-27 12:20 35.06045 32.45176 23363 ft 424 kts 86°
2026-04-27 12:20 35.06146 32.48745 22796 ft 417 kts 86°
2026-04-27 12:21 35.06241 32.52256 22282 ft 410 kts 86°
2026-04-27 12:21 35.06331 32.55705 21800 ft 403 kts 87°
2026-04-27 12:21 35.06420 32.59107 21307 ft 398 kts 86°
2026-04-27 12:21 35.06511 32.62486 20845 ft 392 kts 86°
2026-04-27 12:22 35.06691 32.69061 19874 ft 383 kts 87°
2026-04-27 12:22 35.06863 32.75526 18903 ft 378 kts 86°
2026-04-27 12:22 35.07035 32.81954 17519 ft 385 kts 86°
2026-04-27 12:22 35.07179 32.88153 16583 ft 378 kts 86°
2026-04-27 12:23 35.07232 32.91348 16089 ft 375 kts 90°
2026-04-27 12:23 35.06917 32.94512 15591 ft 374 kts 102°
2026-04-27 12:23 35.06149 32.97529 15100 ft 372 kts 109°
2026-04-27 12:23 35.05290 33.00495 14609 ft 369 kts 108°
2026-04-27 12:24 35.04455 33.03402 14130 ft 367 kts 109°
2026-04-27 12:24 35.03609 33.06332 13611 ft 365 kts 108°
2026-04-27 12:24 35.02767 33.09241 13092 ft 362 kts 108°
2026-04-27 12:24 35.01935 33.12118 12604 ft 357 kts 108°
2026-04-27 12:25 35.01115 33.14964 12115 ft 353 kts 108°
2026-04-27 12:25 35.00308 33.17773 11616 ft 349 kts 108°
2026-04-27 12:25 34.99509 33.20554 11128 ft 346 kts 108°
2026-04-27 12:25 34.98710 33.23313 10637 ft 343 kts 108°
2026-04-27 12:26 34.97929 33.26015 10406 ft 332 kts 107°
2026-04-27 12:26 34.97176 33.28616 10279 ft 318 kts 107°
2026-04-27 12:26 34.96451 33.31115 10158 ft 306 kts 107°
2026-04-27 12:26 34.95756 33.33516 10044 ft 295 kts 107°
2026-04-27 12:27 34.95080 33.35839 9822 ft 288 kts 107°
2026-04-27 12:27 34.94413 33.38141 9393 ft 288 kts 107°
2026-04-27 12:27 34.93748 33.40430 8987 ft 287 kts 107°
2026-04-27 12:27 34.93085 33.42719 8605 ft 285 kts 107°
2026-04-27 12:28 34.92431 33.44978 8200 ft 284 kts 107°
2026-04-27 12:28 34.91773 33.47233 7804 ft 282 kts 107°
2026-04-27 12:28 34.91119 33.49481 7400 ft 281 kts 107°
2026-04-27 12:28 34.90473 33.51699 6815 ft 277 kts 107°
2026-04-27 12:29 34.89827 33.53896 6257 ft 273 kts 108°
2026-04-27 12:29 34.89188 33.56067 5792 ft 272 kts 108°
2026-04-27 12:29 34.88549 33.58246 5354 ft 274 kts 108°
2026-04-27 12:29 34.87991 33.60422 5101 ft 259 kts 97°
2026-04-27 12:30 34.87950 33.62503 4975 ft 235 kts 79°
2026-04-27 12:30 34.88376 33.64324 4822 ft 216 kts 63°
2026-04-27 12:30 34.89135 33.65861 4497 ft 210 kts 54°
2026-04-27 12:30 34.89961 33.67324 4138 ft 209 kts 53°
2026-04-27 12:31 34.90781 33.68776 3788 ft 209 kts 54°
2026-04-27 12:31 34.91621 33.70264 3318 ft 214 kts 54°
2026-04-27 12:31 34.92448 33.71734 3107 ft 209 kts 54°
2026-04-27 12:31 34.93268 33.73191 2979 ft 208 kts 54°
2026-04-27 12:32 34.94091 33.74654 2871 ft 210 kts 53°
2026-04-27 12:32 34.94893 33.76086 2753 ft 198 kts 54°
2026-04-27 12:32 34.95658 33.77451 2704 ft 192 kts 54°
2026-04-27 12:32 34.96407 33.78787 2663 ft 190 kts 54°
2026-04-27 12:33 34.97261 33.79995 2614 ft 188 kts 31°
2026-04-27 12:33 34.98496 33.80426 2565 ft 187 kts 355°
2026-04-27 12:33 34.99717 33.79926 2466 ft 187 kts 323°
2026-04-27 12:33 35.00515 33.78702 2396 ft 187 kts 290°
2026-04-27 12:34 35.00635 33.77139 2355 ft 189 kts 257°
2026-04-27 12:34 35.00036 33.75746 2201 ft 188 kts 223°
2026-04-27 12:34 34.98894 33.75106 2046 ft 186 kts 189°
2026-04-27 12:34 34.97663 33.74639 1991 ft 186 kts 214°
2026-04-27 12:35 34.96644 33.73642 2014 ft 189 kts 221°
2026-04-27 12:35 34.95718 33.72582 1905 ft 178 kts 224°
2026-04-27 12:35 34.94850 33.71537 1730 ft 172 kts 224°
2026-04-27 12:35 34.94048 33.70561 1534 ft 154 kts 226°
2026-04-27 12:36 34.93327 33.69680 1356 ft 142 kts 226°
2026-04-27 12:36 34.92640 33.68839 1187 ft 139 kts 225°
2026-04-27 12:36 34.91966 33.68012 1021 ft 137 kts 221°
2026-04-27 12:36 34.91298 33.67195 848 ft 137 kts 222°
2026-04-27 12:37 34.90629 33.66376 684 ft 135 kts 221°
2026-04-27 12:37 34.89962 33.65560 513 ft 137 kts 222°
2026-04-27 12:37 34.89520 33.65017 431 ft 136 kts 223°
2026-04-27 12:37 34.88856 33.64195 240 ft 134 kts 221°
2026-04-27 12:38 34.88203 33.63407 46 ft 131 kts 222°
2026-04-27 12:38 34.87638 33.62719 21 ft 92 kts 225°
2026-04-27 12:38 34.87260 33.62267 21 ft 68 kts 225°
2026-04-27 12:38 34.87028 33.61953 21 ft 20 kts 231°
2026-04-27 12:39 34.86969 33.61800 21 ft 21 kts 255°
2026-04-27 12:39 34.86936 33.61642 20 ft 16 kts 257°
2026-04-27 12:39 34.86905 33.61501 20 ft 18 kts 256°
2026-04-27 12:39 34.86886 33.61376 20 ft 14 kts 302°
2026-04-27 12:40 34.86880 33.61295 22 ft 8 kts 243°
2026-04-27 12:40 34.86845 33.61245 20 ft 8 kts 221°
2026-04-27 12:40 34.86799 33.61192 20 ft 10 kts 226°
2026-04-27 12:40 34.86779 33.61167 20 ft 0 kts 226°
2026-04-27 12:42 34.86778 33.61155 20 ft 4 kts 262°
2026-04-27 12:42 34.86790 33.61134 23 ft 2 kts 313°
2026-04-27 12:43 34.86805 33.61116 20 ft 8 kts 315°
2026-04-27 12:43 34.86823 33.61093 20 ft 0 kts 315°
2026-04-27 12:43 34.86823 33.61094 20 ft 0 kts 315°
2026-04-27 12:45 34.86822 33.61094 20 ft 0 kts 315°
2026-04-27 13:03 34.86822 33.61095 21 ft 0 kts 315°
2026-04-27 13:08 34.86821 33.61095 21 ft 0 kts 315°